Weather reports worldwide

Advertisment
St. Mary's, United Kingdom (3803): temperature & dewpoint: 21.06.2017 06:00:00 - 27.06.2017 06:00:00 (BST)St. Mary's, United Kingdom (3803): temperature 5cm: 21.06.2017 06:00:00 - 27.06.2017 06:00:00 (BST)St. Mary's, United Kingdom (3803): temperature -20cm: 21.06.2017 06:00:00 - 27.06.2017 06:00:00 (BST)St. Mary's, United Kingdom (3803): wind speed & gusts: 21.06.2017 06:00:00 - 27.06.2017 06:00:00 (BST)St. Mary's, United Kingdom (3803): wind direction: 21.06.2017 06:00:00 - 27.06.2017 06:00:00 (BST)St. Mary's, United Kingdom (3803): reduced air pressure: 21.06.2017 06:00:00 - 27.06.2017 06:00:00 (BST)St. Mary's, United Kingdom (3803): visibility: 21.06.2017 06:00:00 - 27.06.2017 06:00:00 (BST)St. Mary's, United Kingdom (3803): precipitation: 21.06.2017 06:00:00 - 27.06.2017 06:00:00 (BST)
Date & Time tt [°C] td [°C] tt 5cm [°C] tt -20cm [°C] ff [km/h] ff [kn] fx [km/h] fx [kn] dd ppp [hPa] vv [km] rr [mm]
27.06.2017 06:00:00 15,2 14,6 - - 16 9 - - S 1007,6 21 0,0
27.06.2017 05:00:00 15,2 14,3 - - 15 8 - - S 1008,1 45 0,0
27.06.2017 04:00:00 15,2 14,0 - - 11 6 - - S 1008,3 50 0,0
27.06.2017 03:00:00 15,1 13,6 - - 11 6 - - S 1009,1 50 0,0
27.06.2017 02:00:00 15,0 13,8 - - 11 6 - - SSE 1010,0 45 0,0
27.06.2017 01:00:00 15,0 13,7 - - 11 6 - - SE 1010,2 40 0,0
27.06.2017 00:00:00 15,1 13,6 - - 9 5 - - SSE 1011,0 40 0,0
26.06.2017 23:00:00 15,0 13,5 - - 5 3 - - SSW 1011,6 45 0,0
26.06.2017 22:00:00 14,8 13,1 - - 8 4 - - SSW 1011,7 30 0,0
26.06.2017 21:00:00 15,5 13,2 - - 9 5 - - SSW 1011,7 35 0,0
26.06.2017 20:00:00 15,8 13,5 - - 11 6 - - S 1012,0 30 0,0
26.06.2017 19:00:00 16,4 13,3 - - 9 5 - - SSE 1012,4 40 0,0
26.06.2017 18:00:00 17,0 13,3 - - 11 6 - - SSE 1012,4 30 0,0
26.06.2017 17:00:00 17,1 13,0 - - 11 6 - - SSE 1013,0 10 0,0
26.06.2017 16:00:00 17,1 12,9 - - 9 5 - - S 1013,4 10 0,0
26.06.2017 15:00:00 17,2 13,1 - - 5 3 - - S 1013,7 10 0,0
26.06.2017 14:00:00 16,5 12,6 - - 8 4 - - SSE 1014,1 10 0,0
26.06.2017 13:00:00 16,1 11,7 - - 8 4 - - SE 1014,5 10 0,0
26.06.2017 12:00:00 15,7 11,9 - - 9 5 - - ESE 1014,6 10 0,0
26.06.2017 11:00:00 16,1 12,0 - - 9 5 - - E 1014,3 10 0,0
26.06.2017 10:00:00 15,5 12,3 - 18,5 8 4 - - ENE 1014,1 35 0,0
26.06.2017 09:00:00 15,3 12,4 - - 2 1 - - ESE 1014,1 35 0,0
26.06.2017 08:00:00 15,5 12,3 - - 4 2 - - WSW 1014,3 10 0,0
26.06.2017 07:00:00 14,8 12,2 - - 4 2 - - WSW 1014,4 45 0,0
26.06.2017 06:00:00 14,5 12,1 - - 2 1 - - E 1014,8 50 0,0
26.06.2017 05:00:00 14,5 11,8 - - 4 2 - - ENE 1015,0 50 0,0
26.06.2017 04:00:00 14,4 11,8 - - 4 2 - - SSW 1015,1 50 0,0
26.06.2017 03:00:00 14,4 12,0 - - 4 2 - - WNW 1015,5 50 0,0
26.06.2017 02:00:00 14,5 11,8 - - 5 3 - - W 1015,7 50 0,0
26.06.2017 01:00:00 14,4 11,8 - - 5 3 - - W 1015,8 50 0,0
26.06.2017 00:00:00 14,4 12,3 - - 9 5 - - W 1016,2 40 0,0
25.06.2017 23:00:00 14,3 12,1 - - 5 3 - - WSW 1016,4 50 0,0
25.06.2017 22:00:00 14,9 12,0 - - 8 4 - - NW 1016,3 50 0,0
25.06.2017 21:00:00 14,9 12,6 - - 13 7 - - W 1016,2 45 0,0
25.06.2017 20:00:00 15,2 12,7 - - 18 10 - - WNW 1016,0 50 0,0
25.06.2017 19:00:00 15,7 13,2 - - 21 11 - - WNW 1016,0 40 0,0
25.06.2017 18:00:00 16,2 13,4 - - 21 11 - - W 1016,2 40 0,0
25.06.2017 17:00:00 18,4 14,0 - - 24 13 - - W 1016,4 26 0,0
25.06.2017 16:00:00 17,6 14,0 - - 22 12 - - W 1016,6 35 0,0
25.06.2017 15:00:00 17,0 13,8 - - 24 13 - - W 1016,8 30 0,0
25.06.2017 14:00:00 18,4 14,5 - - 24 13 - - W 1016,7 22 0,0
25.06.2017 13:00:00 18,1 14,1 - - 22 12 - - W 1016,6 50 0,0
25.06.2017 12:00:00 17,1 14,6 - - 24 13 - - W 1016,4 23 0,0
25.06.2017 11:00:00 16,6 14,7 - - 26 14 - - WNW 1016,2 28 0,0
25.06.2017 10:00:00 15,9 15,2 - 18,5 21 11 - - W 1016,0 14 0,0
25.06.2017 09:00:00 15,3 15,1 - - 28 15 - - W 1015,9 12 0,0
25.06.2017 08:00:00 15,6 15,4 - - 29 16 - - WSW 1015,8 14 0,0
25.06.2017 07:00:00 15,3 15,0 - - 29 16 - - WSW 1015,8 2,8 0,0
25.06.2017 06:00:00 15,0 14,7 - - 29 16 - - W 1015,9 14 0,0
25.06.2017 05:00:00 14,9 14,6 - - 29 16 - - W 1016,0 2,6 0,0
25.06.2017 04:00:00 15,1 14,1 - - 28 15 - - W 1016,3 8 0,0
25.06.2017 03:00:00 14,8 13,6 - - 24 13 - - W 1016,5 20 0,0
25.06.2017 02:00:00 14,5 12,9 - - 24 13 - - WSW 1016,6 30 0,0
25.06.2017 01:00:00 14,2 12,5 - - 26 14 - - WSW 1016,9 28 0,0
25.06.2017 00:00:00 14,2 12,3 - - 28 15 - - W 1017,4 30 0,0
24.06.2017 23:00:00 14,0 12,3 - - 24 13 - - W 1017,6 30 0,0
24.06.2017 22:00:00 14,2 12,4 - - 21 11 - - W 1017,2 30 0,0
24.06.2017 21:00:00 15,1 12,4 - - 22 12 - - W 1017,0 27 0,0
24.06.2017 20:00:00 15,7 12,9 - - 22 12 - - W 1016,7 50 0,0
24.06.2017 19:00:00 16,3 13,7 - - 21 11 - - W 1016,3 35 0,0
24.06.2017 18:00:00 16,4 14,0 - - 26 14 - - W 1016,4 10 0,0
24.06.2017 17:00:00 16,1 13,1 - - 24 13 - - WNW 1016,5 10 0,0
24.06.2017 16:00:00 17,5 14,8 - - 21 11 - - W 1016,5 25 0,0
24.06.2017 15:00:00 17,4 14,9 - - 18 10 - - W 1016,5 30 0,0
24.06.2017 14:00:00 18,0 15,4 - - 22 12 - - W 1016,8 24 0,0
24.06.2017 13:00:00 17,4 15,7 - - 21 11 - - WSW 1016,6 10 0,0
24.06.2017 12:00:00 17,0 15,8 - - 15 8 - - WSW 1016,5 3,0 0,0
24.06.2017 11:00:00 17,4 17,1 - - 21 11 - - WSW 1016,3 10 0,0
24.06.2017 10:00:00 16,3 16,3 - 19,0 21 11 - - WSW 1016,2 8 0,0
24.06.2017 09:00:00 16,2 16,1 - - 21 11 - - WSW 1016,5 0,8 0,0
24.06.2017 08:00:00 15,9 15,9 - - 21 11 - - WSW 1016,2 0,7 0,2
24.06.2017 07:00:00 15,7 15,6 - - 21 11 - - WSW 1016,5 2,1 0,0
24.06.2017 06:00:00 15,8 15,7 - - 22 12 - - WSW 1016,6 8 0,0
24.06.2017 05:00:00 15,6 15,5 - - 22 12 - - WSW 1016,8 1,6 0,4
24.06.2017 04:00:00 15,6 15,4 - - 26 14 - - WSW 1017,1 4,1 0,2
24.06.2017 03:00:00 15,6 15,4 - - 26 14 - - WSW 1017,5 3,7 0,0
24.06.2017 02:00:00 15,7 15,3 - - 29 16 - - WSW 1017,9 3,2 0,0
24.06.2017 01:00:00 15,8 15,4 - - 31 17 - - SW 1018,2 10 0,0
24.06.2017 00:00:00 15,7 15,3 - - 28 15 - - SW 1018,6 9 0,0
23.06.2017 23:00:00 15,5 15,1 - - 29 16 46 25 SW 1018,9 4,4 0,0
23.06.2017 22:00:00 16,2 14,7 - - 31 17 - - SW 1018,9 15 0,0
23.06.2017 21:00:00 16,4 14,4 - - 29 16 - - SW 1018,8 17 0,0
23.06.2017 20:00:00 16,6 14,1 - - 28 15 - - SW 1018,9 23 0,0
23.06.2017 19:00:00 16,9 14,1 - - 26 14 - - WSW 1019,0 18 0,0
23.06.2017 18:00:00 18,5 14,4 - - 29 16 - - WSW 1019,1 10 0,0
23.06.2017 17:00:00 18,7 14,1 - - 29 16 - - WSW 1019,3 10 0,0
23.06.2017 16:00:00 18,1 13,6 - - 28 15 - - WSW 1019,5 10 0,0
23.06.2017 15:00:00 19,1 14,3 - - 31 17 46 25 WSW 1019,4 10 0,0
23.06.2017 14:00:00 18,8 14,7 - - 24 13 - - W 1019,3 10 0,0
23.06.2017 13:00:00 17,1 15,1 - - 35 19 - - SW 1019,7 10 0,0
23.06.2017 12:00:00 18,2 15,3 - - 35 19 - - SW 1019,1 10 0,0
23.06.2017 11:00:00 18,1 14,8 - - 31 17 - - SW 1019,5 10 0,0
23.06.2017 10:00:00 18,0 14,7 - 19,0 28 15 - - SSW 1019,3 10 0,0
23.06.2017 09:00:00 16,4 13,5 - - 24 13 - - SW 1019,3 10 0,0
23.06.2017 08:00:00 16,3 12,3 - - 24 13 - - WSW 1019,0 40 0,0
23.06.2017 07:00:00 15,8 11,9 - - 26 14 - - WSW 1018,7 35 0,0
23.06.2017 06:00:00 15,5 12,9 - - 24 13 - - WSW 1018,8 45 0,0
23.06.2017 05:00:00 15,4 12,3 - - 26 14 - - W 1019,0 40 0,0
23.06.2017 04:00:00 15,6 12,6 - - 26 14 - - W 1019,0 50 0,0
23.06.2017 03:00:00 15,4 12,0 - - 24 13 - - W 1019,1 40 0,0
23.06.2017 02:00:00 15,4 12,5 - - 21 11 - - WSW 1019,3 40 0,0
23.06.2017 01:00:00 15,2 11,9 - - 21 11 - - W 1019,5 50 0,0
23.06.2017 00:00:00 15,1 11,6 - - 22 12 - - W 1019,5 45 0,0
22.06.2017 23:00:00 14,9 11,3 - - 18 10 - - W 1019,1 50 0,0
22.06.2017 22:00:00 14,7 11,5 - - 21 11 - - W 1018,6 50 0,0
22.06.2017 21:00:00 14,9 11,2 - - 24 13 - - WNW 1018,1 45 0,0
22.06.2017 20:00:00 16,1 12,1 - - 22 12 - - W 1018,1 40 0,0
22.06.2017 19:00:00 15,5 12,3 - - 21 11 - - W 1018,1 35 0,0
22.06.2017 18:00:00 15,9 12,4 - - 22 12 - - W 1018,0 10 0,0
22.06.2017 17:00:00 16,4 12,9 - - 21 11 - - W 1017,7 19 0,0
22.06.2017 16:00:00 16,8 13,4 - - 21 11 - - W 1017,8 10 0,0
22.06.2017 15:00:00 17,5 12,9 - - 24 13 - - W 1017,7 40 0,0
22.06.2017 14:00:00 17,6 13,0 - - 22 12 - - W 1017,4 10 0,0
22.06.2017 13:00:00 18,4 14,0 - - 24 13 - - WNW 1017,0 10 0,0
22.06.2017 12:00:00 17,1 13,5 - - 24 13 - - WNW 1016,8 10 0,0
22.06.2017 11:00:00 16,7 13,6 - - 21 11 - - WNW 1016,4 10 0,0
22.06.2017 10:00:00 15,5 13,8 - 19,7 22 12 - - WNW 1016,1 10 0,0
22.06.2017 09:00:00 16,4 14,4 - - 18 10 - - W 1015,4 10 0,0
22.06.2017 08:00:00 16,1 14,3 - - 16 9 - - WNW 1015,0 35 0,0
22.06.2017 07:00:00 15,8 13,8 - - 18 10 - - W 1014,5 35 0,0
22.06.2017 06:00:00 15,8 13,7 - - 15 8 - - W 1014,0 40 0,0
22.06.2017 05:00:00 15,8 13,5 - - 21 11 - - W 1014,0 50 0,0
22.06.2017 04:00:00 16,2 14,4 - - 22 12 - - W 1014,1 40 0,0
22.06.2017 03:00:00 16,2 14,6 - - 22 12 - - WSW 1014,1 26 0,0
22.06.2017 02:00:00 16,2 14,6 - - 16 9 - - WSW 1014,1 24 0,0
22.06.2017 01:00:00 16,3 14,1 - - 15 8 - - SW 1014,2 40 0,0
22.06.2017 00:00:00 16,2 14,7 - - 22 12 - - W 1014,4 16 0,0
21.06.2017 23:00:00 16,6 14,2 - - 16 9 - - WSW 1014,2 35 0,0
21.06.2017 22:00:00 16,4 14,7 - - 15 8 - - WSW 1013,9 20 0,0
21.06.2017 21:00:00 16,8 14,9 - - 15 8 - - WSW 1013,7 20 0,0
21.06.2017 20:00:00 17,1 14,9 - - 18 10 - - WSW 1013,5 20 0,0
21.06.2017 19:00:00 18,5 15,2 - - 18 10 - - WSW 1013,2 35 0,0
21.06.2017 18:00:00 18,6 16,4 - - 21 11 - - WSW 1013,2 20 0,0
21.06.2017 17:00:00 18,5 16,6 - - 22 12 - - SW 1013,1 6 0,0
21.06.2017 16:00:00 18,9 16,6 - - 16 9 - - SW 1013,1 4,9 0,0
21.06.2017 15:00:00 18,9 16,7 - - 18 10 - - SW 1013,3 4,8 0,0
21.06.2017 14:00:00 18,7 17,3 - - 21 11 - - SW 1013,6 1,2 0,0
21.06.2017 13:00:00 18,4 17,0 - - 28 15 - - SW 1013,8 1,7 0,0
21.06.2017 12:00:00 19,8 17,6 - - 16 9 - - S 1013,3 3,0 0,0
21.06.2017 11:00:00 19,6 17,8 - - 16 9 - - S 1013,2 2,5 0,0
21.06.2017 10:00:00 19,2 17,6 19,4 19,9 13 7 - - SSE 1013,4 7 0,0
21.06.2017 09:00:00 18,3 16,9 - - 18 10 - - ESE 1012,8 7 0,0
21.06.2017 08:00:00 17,7 17,1 - - 18 10 - - ESE 1012,7 4,5 0,0
21.06.2017 07:00:00 17,1 16,7 - - 13 7 - - ESE 1013,3 2,4 0,0
21.06.2017 06:00:00 16,5 16,0 - - 9 5 - - E 1013,4 2,0 0,0

tt = temperature
td = dewpoint
tt 5cm = temperature 5cm
tt -20cm = temperature -20cm
ff = wind speed
fx = gusts
dd = wind direction
ppp = reduced air pressure
vv = visibility
rr = precipitation

Next stations